Powrót do katalogu

STARLINK-37234

AktywnyŁącznośćVLEO
NORAD 68535·PAYLOAD·🇺🇸 United States

Wystrzelony Mar 30, 2026 z Cape Canaveral Space Force Station

Loading…

Następne Przeloty (najbliższe 24 godziny)

TLE

ŚwieżeSource: CelesTrak SupGP

Epoka: Sep 14, 2026, 22:49 UTC

1 68535C 26068AD  26257.95118056  .00027057  00000+0  79969-3 0  2576
2 68535  53.1572 320.0069 0001200  89.7622 301.6619 15.34366262    14

Śledź STARLINK-37234 w czasie rzeczywistym z AllMySat

Download on the App Store